Location: Kitt Peak
(31.9633°N, 111.6000°W)
Time: 20:09:24
(UTC-07:00)

Amateur Radio Satellites - All Passes

Search period start: 28 March 2015 19:39
Search period end: 29 March 2015 19:39
Location: Kitt Peak, 31.9633°N, 111.6000°W

Satellite Date Start Highest point End Downlink Frequencies (MHz)
Time Altitude Azimuth
CUBESAT XI-V 28 Mar 19:42:39 19:46:35 27° 288° (WNW) 19:50:24 437.345
BEESAT 3 28 Mar 19:51:42 19:55:47 72° 244° (WSW) 19:59:47 437.485
COMPASS 1 28 Mar 19:54:55 19:57:34 17° 71° (ENE) 20:00:24 437.405
CUSAT 1 28 Mar 19:55:32 19:55:54 10° 97° (E) 19:56:28 437.405
DOVE 4 28 Mar 19:58:52 20:02:19 23° 73° (ENE) 20:05:46 437.250
GOMX 1 28 Mar 20:05:24 20:09:47 45° 76° (ENE) 20:13:58 467.674
STRAND 1 28 Mar 20:10:12 20:14:45 32° 289° (WNW) 20:19:12 437.568
HO-68 28 Mar 20:14:53 20:21:57 69° 73° (ENE) 20:29:06 435.675
CANX-2 28 Mar 20:20:48 20:24:58 63° 76° (ENE) 20:29:10 2200.000
AIST 2 28 Mar 20:20:50 20:25:02 61° 61° (ENE) 20:29:08 435.215
CUTE 1.7 + AOD 2 28 Mar 20:34:48 20:39:01 86° 78° (ENE) 20:43:17 437.475
DANDE 28 Mar 20:37:28 20:40:45 36° 98° (E) 20:43:29 436.750
SRMSAT 28 Mar 20:46:46 20:49:21 13° 196° (SSW) 20:51:48 437.500
DELFI C3 28 Mar 20:47:42 20:50:42 21° 72° (ENE) 20:53:50 145.870
BEESAT 2 28 Mar 20:52:53 20:55:31 16° 250° (WSW) 20:57:58 435.950
BRITE-PL 28 Mar 20:53:03 20:57:24 31° 262° (W) 21:01:25 437.365/2234.400
UKube-1 28 Mar 20:54:47 20:56:39 13° 69° (ENE) 20:58:43 .
AAUSAT CUBESAT 2 28 Mar 21:02:16 21:06:25 77° 259° (WSW) 21:10:37 437.432
DX 1 28 Mar 21:02:57 21:05:46 18° 70° (ENE) 21:08:45 434.975-435.025
SEEDS 28 Mar 21:05:24 21:09:26 46° 261° (W) 21:13:31 437.485
HUMSAT D 28 Mar 21:08:22 21:09:01 10° 69° (ENE) 21:09:56 437.325/437.525
GONETS M04 28 Mar 21:10:44 21:17:06 21° 291° (WNW) 21:23:02
CINEMA 3 28 Mar 21:20:21 21:24:36 71° 259° (W) 21:28:45 145.822/145.860
Oscar 11 28 Mar 21:21:56 21:26:15 80° 76° (ENE) 21:30:34 145.826/435.025
COMPASS 1 28 Mar 21:29:25 21:33:05 29° 264° (W) 21:36:44 437.405
FUNcube-1 28 Mar 21:31:27 21:35:23 45° 75° (ENE) 21:39:22 145.935
UWE-3 28 Mar 21:33:39 21:37:46 65° 76° (ENE) 21:41:52 435.000/436.395/437.385
DOVE 4 28 Mar 21:36:34 21:40:04 22° 264° (W) 21:43:21 437.250
CUSAT 1 28 Mar 21:37:03 21:38:37 13° 282° (WNW) 21:39:59 437.405
CUBEBUG 2 28 Mar 21:37:07 21:41:18 89° 265° (W) 21:45:27 437.445
VELOX 1 28 Mar 21:39:47 21:42:49 19° 71° (ENE) 21:46:00 145.980
RS-15 28 Mar 21:41:09 21:48:35 19° 326° (NW) 21:55:38 29.354- 29.394
AISAT 28 Mar 21:43:49 21:47:09 22° 71° (ENE) 21:50:36 437.250
ZACube-1 28 Mar 21:43:52 21:47:58 69° 77° (ENE) 21:52:06 437.345
GOMX 1 28 Mar 21:46:14 21:48:09 12° 268° (W) 21:49:45 467.674
UNISAT 6 28 Mar 21:50:18 21:51:35 11° 91° (E) 21:53:14 437.425
TIGRISAT 28 Mar 21:59:50 22:02:18 15° 92° (E) 22:05:02 435.000
50 SAT 28 Mar 21:59:58 22:03:21 29° 74° (ENE) 22:06:48 437.505
HO-68 28 Mar 22:05:40 22:10:19 17° 268° (W) 22:14:34 435.675
ESTCUBE 1 28 Mar 22:10:54 22:14:15 21° 71° (ENE) 22:17:45 437.505/2401.250
DELFI C3 28 Mar 22:22:33 22:25:48 22° 265° (W) 22:28:58 145.870
UKube-1 28 Mar 22:28:19 22:32:27 43° 260° (W) 22:36:36 .
ANTELSAT 28 Mar 22:28:22 22:32:31 33° 97° (E) 22:36:47 437.575/2403.000
ISS 28 Mar 22:28:35 22:31:46 51° 318° (NW) 22:34:57 145.825
QB50P1 28 Mar 22:35:41 22:38:30 18° 94° (E) 22:41:27 145.935-145.965
DUCHIFAT 1 28 Mar 22:37:53 22:40:46 18° 94° (E) 22:43:47 145.980
DX 1 28 Mar 22:37:54 22:41:49 32° 262° (W) 22:45:42 434.975-435.025
HUMSAT D 28 Mar 22:40:30 22:44:26 46° 261° (W) 22:48:23 437.325/437.525
QB50P2 28 Mar 22:49:37 22:53:13 27° 96° (E) 22:56:53 145.880/145.840
PCSat 28 Mar 23:00:03 23:02:58 15° 50° (NE) 23:06:08 145.827
VELOX 1 28 Mar 23:15:15 23:19:13 30° 263° (W) 23:23:07 145.980
YUBILEINY 28 Mar 23:16:18 23:20:31 15° 65° (ENE) 23:25:23 435.215
CUBEBUG 1 28 Mar 23:16:38 23:21:03 71° 258° (WSW) 23:25:28 437.445
POPSAT HIP 1 28 Mar 23:18:05 23:22:16 62° 100° (E) 23:26:28 437.405
AISAT 28 Mar 23:19:53 23:23:39 26° 264° (W) 23:27:20 437.250
BUGSAT 1 28 Mar 23:21:02 23:24:53 44° 99° (E) 23:28:45 437.445
TISAT 1 28 Mar 23:21:23 23:24:40 23° 72° (ENE) 23:28:03 437.305
UNISAT 6 28 Mar 23:24:14 23:28:43 53° 285° (WNW) 23:33:15 437.425
SPROUT 28 Mar 23:28:47 23:32:38 34° 74° (ENE) 23:36:32 437.525
NANOSAT C BR1 28 Mar 23:28:56 23:33:11 86° 102° (ESE) 23:37:25 145.865
POLYITAN 1 28 Mar 23:32:34 23:36:49 83° 284° (WNW) 23:41:05 437.675
TIGRISAT 28 Mar 23:34:56 23:39:15 41° 285° (WNW) 23:43:36 435.000
50 SAT 28 Mar 23:36:12 23:38:23 14° 267° (W) 23:40:23 437.505
ESTCUBE 1 28 Mar 23:47:04 23:51:00 28° 264° (W) 23:54:53 437.505/2401.250
ANTELSAT 29 Mar 00:05:50 00:09:07 19° 289° (WNW) 00:12:17 437.575/2403.000
QB50P1 29 Mar 00:10:46 00:14:25 28° 287° (WNW) 00:18:00 145.935-145.965
DUCHIFAT 1 29 Mar 00:13:02 00:16:37 27° 287° (WNW) 00:20:09 145.980
QB50P2 29 Mar 00:25:56 00:28:58 19° 289° (WNW) 00:31:53 145.880/145.840
ITUPSAT 1 29 Mar 00:38:44 00:42:42 27° 71° (ENE) 00:46:46 437.325
PCSat 29 Mar 00:41:34 00:46:57 66° 248° (WSW) 00:52:18 145.827
TISAT 1 29 Mar 00:57:05 01:00:25 22° 265° (W) 01:03:39 437.305
BUGSAT 1 29 Mar 00:59:01 01:00:02 11° 291° (WNW) 01:00:48 437.445
Oscar 19 29 Mar 01:04:02 01:08:04 23° 95° (E) 01:12:14 437.125/150
SPROUT 29 Mar 01:06:16 01:08:52 15° 267° (W) 01:11:17 437.525
YUBILEINY 29 Mar 01:09:52 01:18:43 89° 266° (W) 01:27:29 435.215
SWISSCUBE 29 Mar 01:25:55 01:30:44 80° 258° (WSW) 01:35:34 437.505
BEESAT 29 Mar 01:29:00 01:33:47 81° 257° (WSW) 01:38:37 436.000
KKS-1 29 Mar 01:46:44 01:50:16 24° 72° (ENE) 01:53:54 437.445
ITAMSAT 1 29 Mar 02:08:01 02:12:31 31° 97° (E) 02:17:05 435.822/435.867
ITUPSAT 1 29 Mar 02:16:34 02:20:33 25° 264° (W) 02:24:26 437.325
RS-15 29 Mar 02:18:50 02:26:54 22° 38° (NE) 02:35:43 29.354- 29.394
STARS 29 Mar 02:19:26 02:23:25 36° 73° (ENE) 02:27:27 437.465
Oscar 19 29 Mar 02:42:52 02:47:28 32° 288° (WNW) 02:51:59 437.125/150
Gurwin Techsat 1B 29 Mar 02:53:35 02:58:55 75° 102° (ESE) 03:04:13 435.225
YUBILEINY 29 Mar 03:10:33 03:14:32 13° 278° (W) 03:17:45 435.215
MOZHAYETS 4 29 Mar 03:19:56 03:21:56 13° 69° (ENE) 03:24:10
KKS-1 29 Mar 03:23:18 03:26:52 23° 265° (W) 03:30:20 437.445
AIST 1 29 Mar 03:24:43 03:28:32 30° 91° (E) 03:32:25
O/OREOS (USA 219) 29 Mar 03:26:58 03:31:22 49° 105° (ESE) 03:35:49 437.305
SO-50 29 Mar 03:41:32 03:46:13 41° 57° (ENE) 03:50:52 436.795
ITAMSAT 1 29 Mar 03:47:41 03:51:55 25° 290° (WNW) 03:55:59 435.822/435.867
AO-7 29 Mar 03:47:50 03:55:15 37° 98° (E) 04:02:49 29.400- 29.500
JAS-2 29 Mar 03:49:59 03:56:38 34° 93° (E) 04:02:53 435.910
HORYU 2 29 Mar 03:54:33 03:59:03 74° 102° (ESE) 04:03:33 437.375
STARS 29 Mar 03:57:26 04:00:02 15° 267° (W) 04:02:27 437.465
VERMONT LUNAR 29 Mar 04:12:57 04:16:04 38° 147° (SSE) 04:19:13 437.305
AUBIESAT-1 29 Mar 04:22:19 04:25:41 28° 67° (ENE) 04:29:22 437.475
RS-15 29 Mar 04:29:51 04:41:31 81° 62° (ENE) 04:53:40 29.354- 29.394
Gurwin Techsat 1B 29 Mar 04:36:43 04:38:21 11° 294° (WNW) 04:39:37 435.225
M-CUBED/EXP-1 PRIME 29 Mar 04:45:54 04:49:43 66° 72° (ENE) 04:53:55 437.505
PHONESAT 2.4 29 Mar 04:50:12 04:53:20 30° 145° (SE) 04:56:29 2401.200-2431.200
MOZHAYETS 4 29 Mar 04:54:19 04:58:46 49° 261° (W) 05:03:16
ISS 29 Mar 05:00:32 05:02:42 17° 34° (NE) 05:04:55 145.825
AIST 1 29 Mar 05:03:20 05:06:17 17° 285° (WNW) 05:09:04
CUBESAT XI-V 29 Mar 05:05:44 05:07:54 14° 69° (ENE) 05:10:19 437.345
O/OREOS (USA 219) 29 Mar 05:08:52 05:11:09 13° 302° (WNW) 05:13:12 437.305
SO-50 29 Mar 05:23:03 05:26:31 18° 250° (WSW) 05:29:45 436.795
GONETS M04 29 Mar 05:28:07 05:35:01 26° 71° (ENE) 05:42:14
JAS-2 29 Mar 05:34:38 05:41:43 41° 290° (WNW) 05:48:10 435.910
AO-7 29 Mar 05:40:27 05:48:05 42° 294° (WNW) 05:55:37 29.400- 29.500
STRAND 1 29 Mar 05:43:08 05:46:50 21° 69° (ENE) 05:50:41 437.568
VERMONT LUNAR 29 Mar 05:50:42 05:53:48 35° 341° (NNW) 05:56:55 437.305
AUBIESAT-1 29 Mar 05:57:59 06:00:38 17° 264° (W) 06:03:17 437.475
PRISM 29 Mar 06:01:13 06:05:14 46° 75° (ENE) 06:09:18 437.425
CUTE-I 29 Mar 06:05:37 06:10:18 32° 97° (E) 06:15:01 437.470
Cubesat XI-IV 29 Mar 06:05:42 06:10:24 32° 97° (E) 06:15:09 437.490
PHONESAT 2.4 29 Mar 06:28:14 06:31:37 43° 339° (NNW) 06:35:00 2401.200-2431.200
CUSAT 1 29 Mar 06:34:33 06:35:56 11° 76° (ENE) 06:37:49 437.405
ISS 29 Mar 06:36:14 06:39:13 35° 229° (SW) 06:42:11 145.825
CUBESAT XI-V 29 Mar 06:40:25 06:44:59 49° 261° (W) 06:49:33 437.345
RS-15 29 Mar 06:44:32 06:53:07 22° 255° (WSW) 07:01:09 29.354- 29.394
DANDE 29 Mar 07:19:57 07:23:35 25° 80° (E) 07:28:17 436.750
STRAND 1 29 Mar 07:21:04 07:25:49 37° 262° (W) 07:30:33 437.568
GONETS M04 29 Mar 07:23:47 07:32:23 57° 268° (W) 07:40:54
VERMONT LUNAR 29 Mar 07:29:38 07:32:05 18° 358° (N) 07:34:32 437.305
PRISM 29 Mar 07:39:55 07:41:01 11° 269° (W) 07:41:51 437.425
CUTE-I 29 Mar 07:45:55 07:50:15 25° 290° (WNW) 07:54:27 437.470
Cubesat XI-IV 29 Mar 07:46:03 07:50:22 25° 290° (WNW) 07:54:33 437.490
HO-68 29 Mar 07:50:19 07:54:07 16° 91° (E) 07:58:25 435.675
PHONESAT 2.4 29 Mar 08:07:46 08:10:30 20° 355° (N) 08:13:13 2401.200-2431.200
CANX-2 29 Mar 08:12:18 08:14:56 16° 93° (E) 08:17:45 2200.000
GOMX 1 29 Mar 08:12:22 08:15:21 19° 95° (E) 08:18:36 467.674
CUSAT 1 29 Mar 08:14:03 08:18:39 61° 263° (W) 08:24:47 437.405
CUTE 1.7 + AOD 2 29 Mar 08:25:45 08:29:00 21° 94° (E) 08:32:22 437.475
AAUSAT CUBESAT 2 29 Mar 08:50:55 08:54:20 24° 95° (E) 08:57:48 437.432
SEEDS 29 Mar 08:54:41 08:58:43 40° 98° (E) 09:02:45 437.485
BRITE-PL 29 Mar 09:01:43 09:05:55 67° 284° (WNW) 09:10:22 437.365/2234.400
DANDE 29 Mar 09:03:04 09:06:50 24° 262° (W) 09:11:20 436.750
BEESAT 2 29 Mar 09:04:14 09:07:11 20° 111° (ESE) 09:10:17 435.950
VERMONT LUNAR 29 Mar 09:07:34 09:10:27 26° 14° (NNE) 09:13:21 437.305
Oscar 11 29 Mar 09:15:00 09:18:16 21° 95° (E) 09:21:37 145.826/435.025
COMPASS 1 29 Mar 09:17:15 09:21:29 63° 100° (E) 09:25:41 437.405
CINEMA 3 29 Mar 09:19:39 09:23:48 38° 98° (E) 09:28:10 145.822/145.860
ANTELSAT 29 Mar 09:24:20 09:26:50 16° 70° (ENE) 09:29:31 437.575/2403.000
FUNcube-1 29 Mar 09:25:59 09:28:10 14° 92° (E) 09:30:37 145.935
UWE-3 29 Mar 09:28:54 09:32:08 20° 94° (E) 09:35:32 435.000/436.395/437.385
CUBEBUG 2 29 Mar 09:33:05 09:36:54 28° 96° (E) 09:40:53 437.445
HO-68 29 Mar 09:35:23 09:42:35 74° 287° (WNW) 09:49:43 435.675
ZACube-1 29 Mar 09:37:55 09:41:07 20° 94° (E) 09:44:31 437.345
DOVE 4 29 Mar 09:38:46 09:43:06 60° 283° (WNW) 09:47:39 437.250
QB50P2 29 Mar 09:40:08 09:41:33 12° 69° (ENE) 09:43:11 145.880/145.840
BEESAT 3 29 Mar 09:40:19 09:44:21 70° 116° (ESE) 09:48:28 437.485
PHONESAT 2.4 29 Mar 09:46:32 09:49:32 25° 12° (NNE) 09:52:33 2401.200-2431.200
CANX-2 29 Mar 09:47:06 09:50:58 32° 286° (WNW) 09:54:47 2200.000
GOMX 1 29 Mar 09:49:46 09:53:32 29° 286° (WNW) 09:57:25 467.674
CUTE 1.7 + AOD 2 29 Mar 10:01:21 10:04:54 24° 287° (WNW) 10:08:21 437.475
DELFI C3 29 Mar 10:06:10 10:10:16 71° 101° (E) 10:14:20 145.870
POPSAT HIP 1 29 Mar 10:06:50 10:10:13 25° 72° (ENE) 10:13:42 437.405
BUGSAT 1 29 Mar 10:07:33 10:10:13 17° 71° (ENE) 10:13:02 437.445
AIST 2 29 Mar 10:14:14 10:18:13 43° 114° (ESE) 10:22:18 435.215
NANOSAT C BR1 29 Mar 10:17:06 10:20:51 33° 74° (ENE) 10:24:39 145.865
UNISAT 6 29 Mar 10:18:30 10:22:44 75° 76° (ENE) 10:27:01 437.425
UKube-1 29 Mar 10:20:43 10:24:49 43° 99° (E) 10:28:56 .
POLYITAN 1 29 Mar 10:21:06 10:24:58 37° 74° (ENE) 10:28:53 437.675
AAUSAT CUBESAT 2 29 Mar 10:26:36 10:29:52 21° 288° (WNW) 10:32:59 437.432
TIGRISAT 29 Mar 10:28:49 10:33:03 84° 258° (WSW) 10:37:20 435.000
HUMSAT D 29 Mar 10:29:23 10:33:22 38° 98° (E) 10:37:24 437.325/437.525
DX 1 29 Mar 10:30:36 10:34:54 62° 101° (E) 10:39:12 434.975-435.025
SEEDS 29 Mar 10:32:01 10:34:13 13° 290° (WNW) 10:36:13 437.485
BEESAT 2 29 Mar 10:41:39 10:45:12 27° 305° (NW) 10:48:44 435.950
VERMONT LUNAR 29 Mar 10:45:01 10:48:22 72° 210° (SSW) 10:51:44 437.305
Oscar 11 29 Mar 10:50:46 10:54:25 26° 287° (WNW) 10:57:58 145.826/435.025
CINEMA 3 29 Mar 10:58:01 11:00:48 16° 289° (WNW) 11:03:27 145.822/145.860
QB50P1 29 Mar 10:58:04 11:02:16 72° 258° (WSW) 11:06:29 145.935-145.965
ANTELSAT 29 Mar 10:59:33 11:03:24 33° 263° (W) 11:07:16 437.575/2403.000
DUCHIFAT 1 29 Mar 11:00:00 11:04:11 70° 259° (WSW) 11:08:23 145.980
FUNcube-1 29 Mar 11:00:33 11:04:42 40° 285° (WNW) 11:08:52 145.935
UWE-3 29 Mar 11:04:50 11:08:40 29° 287° (WNW) 11:12:32 435.000/436.395/437.385
CUBEBUG 2 29 Mar 11:10:04 11:13:28 21° 288° (WNW) 11:16:50 437.445
VELOX 1 29 Mar 11:10:08 11:14:33 73° 102° (ESE) 11:18:55 145.980
CUBEBUG 1 29 Mar 11:10:55 11:14:42 30° 97° (E) 11:18:31 437.445
QB50P2 29 Mar 11:13:03 11:17:06 44° 261° (W) 11:21:10 145.880/145.840
ZACube-1 29 Mar 11:13:42 11:17:30 28° 287° (WNW) 11:21:17 437.345
AISAT 29 Mar 11:14:46 11:19:11 87° 102° (ESE) 11:23:36 437.250
50 SAT 29 Mar 11:16:43 11:20:46 81° 284° (WNW) 11:24:49 437.505
PHONESAT 2.4 29 Mar 11:24:37 11:28:10 90° 228° (SW) 11:31:44 2401.200-2431.200
HO-68 29 Mar 11:27:28 11:29:20 11° 301° (WNW) 11:30:37 435.675
BUGSAT 1 29 Mar 11:41:52 11:45:32 28° 263° (W) 11:49:07 437.445
POPSAT HIP 1 29 Mar 11:42:53 11:46:05 20° 265° (W) 11:49:11 437.405
ESTCUBE 1 29 Mar 11:43:59 11:48:31 89° 101° (E) 11:53:01 437.505/2401.250
NANOSAT C BR1 29 Mar 11:54:17 11:56:50 15° 267° (W) 11:59:12 145.865
AIST 2 29 Mar 11:54:29 11:57:05 15° 310° (NW) 11:59:32 435.215
UKube-1 29 Mar 11:58:36 12:00:39 13° 291° (WNW) 12:02:28 .
POLYITAN 1 29 Mar 11:59:00 12:01:06 13° 268° (W) 12:02:57 437.675
HUMSAT D 29 Mar 12:06:32 12:08:51 14° 290° (WNW) 12:10:59 437.325/437.525
YUBILEINY 29 Mar 12:11:01 12:16:44 21° 84° (E) 12:22:58 435.215
Oscar 19 29 Mar 12:16:39 12:20:21 21° 70° (ENE) 12:24:14 437.125/150
JUGNU 29 Mar 12:20:05 12:22:53 14° 164° (SSE) 12:25:47 437.505
TISAT 1 29 Mar 12:45:30 12:49:42 84° 102° (ESE) 12:53:54 437.305
CUBEBUG 1 29 Mar 12:47:53 12:50:53 18° 289° (WNW) 12:53:42 437.445
SPROUT 29 Mar 12:55:51 13:00:04 59° 284° (WNW) 13:04:16 437.525
PHONESAT 2.4 29 Mar 13:04:26 13:06:13 13° 219° (SW) 13:07:52 2401.200-2431.200
ITAMSAT 1 29 Mar 13:21:23 13:25:47 29° 71° (ENE) 13:30:18 435.822/435.867
SWISSCUBE 29 Mar 13:31:32 13:35:58 38° 98° (E) 13:40:25 437.505
BEESAT 29 Mar 13:34:30 13:38:55 38° 98° (E) 13:43:22 436.000
PCSat 29 Mar 13:35:37 13:40:20 33° 109° (ESE) 13:45:10 145.827
O/OREOS (USA 219) 29 Mar 13:41:55 13:46:12 41° 67° (ENE) 13:50:29 437.305
Oscar 19 29 Mar 13:54:50 13:59:31 35° 262° (W) 14:04:10 437.125/150
YUBILEINY 29 Mar 14:04:09 14:12:53 68° 278° (W) 14:21:41 435.215
JUGNU 29 Mar 14:06:46 14:11:20 23° 173° (S) 14:15:56 437.505
Gurwin Techsat 1B 29 Mar 14:09:43 14:15:00 73° 76° (ENE) 14:20:19 435.225
ITUPSAT 1 29 Mar 14:21:10 14:25:56 64° 284° (WNW) 14:30:39 437.325
AO-7 29 Mar 14:41:53 14:48:58 34° 65° (ENE) 14:56:13 29.400- 29.500
HORYU 2 29 Mar 14:48:21 14:52:22 36° 73° (ENE) 14:56:27 437.375
ITAMSAT 1 29 Mar 15:00:53 15:05:16 26° 264° (W) 15:09:34 435.822/435.867
SRMSAT 29 Mar 15:06:26 15:10:38 20° 170° (S) 15:14:53 437.500
SWISSCUBE 29 Mar 15:10:22 15:13:34 17° 291° (WNW) 15:16:34 437.505
BEESAT 29 Mar 15:13:17 15:16:31 18° 291° (WNW) 15:19:34 436.000
AIST 1 29 Mar 15:13:53 15:18:11 75° 83° (E) 15:22:26
KKS-1 29 Mar 15:18:11 15:22:39 82° 281° (W) 15:27:06 437.445
PCSat 29 Mar 15:19:10 15:23:47 27° 304° (NW) 15:28:20 145.827
O/OREOS (USA 219) 29 Mar 15:23:02 15:25:18 13° 259° (W) 15:27:18 437.305
JAS-2 29 Mar 15:39:20 15:45:51 59° 73° (ENE) 15:53:13 435.910
STARS 29 Mar 15:50:00 15:54:19 55° 285° (WNW) 15:58:37 437.465
JUGNU 29 Mar 15:55:02 15:59:50 25° 183° (S) 16:04:37 437.505
HORYU 2 29 Mar 16:26:29 16:29:11 15° 267° (W) 16:31:43 437.375
AO-7 29 Mar 16:33:38 16:41:34 46° 260° (W) 16:49:25 29.400- 29.500
M-CUBED/EXP-1 PRIME 29 Mar 16:36:05 16:36:08 10° 93° (E) 16:36:35 437.505
RS-15 29 Mar 16:41:49 16:46:34 15° 103° (ESE) 16:52:21 29.354- 29.394
MOZHAYETS 4 29 Mar 16:54:16 16:58:51 57° 100° (E) 17:03:24
SRMSAT 29 Mar 16:54:28 16:59:17 25° 179° (S) 17:04:04 437.500
CUTE-I 29 Mar 17:22:46 17:27:29 33° 71° (ENE) 17:32:17 437.470
Cubesat XI-IV 29 Mar 17:22:59 17:27:44 34° 71° (ENE) 17:32:34 437.490
JAS-2 29 Mar 17:26:32 17:31:32 21° 271° (W) 17:36:35 435.910
AUBIESAT-1 29 Mar 17:42:06 17:46:51 56° 104° (ESE) 17:51:24 437.475
JUGNU 29 Mar 17:44:21 17:48:19 18° 192° (SSW) 17:52:12 437.505
SO-50 29 Mar 17:51:27 17:55:39 39° 113° (ESE) 18:00:03 436.795
BEESAT 3 29 Mar 18:06:23 18:07:19 11° 48° (NE) 18:08:28 437.485
M-CUBED/EXP-1 PRIME 29 Mar 18:06:42 18:11:33 68° 288° (WNW) 18:16:12 437.505
GONETS M04 29 Mar 18:22:53 18:30:20 35° 88° (E) 18:38:02
MOZHAYETS 4 29 Mar 18:34:05 18:35:39 11° 292° (WNW) 18:36:55
CUBESAT XI-V 29 Mar 18:42:01 18:46:36 60° 100° (E) 18:51:08 437.345
SRMSAT 29 Mar 18:43:31 18:47:55 21° 189° (S) 18:52:15 437.500
RS-15 29 Mar 18:46:48 18:57:43 86° 115° (ESE) 19:08:45 29.354- 29.394
CUTE-I 29 Mar 19:03:14 19:07:37 24° 265° (W) 19:11:50 437.470
Cubesat XI-IV 29 Mar 19:03:33 19:07:54 24° 265° (W) 19:12:06 437.490
BEESAT 2 29 Mar 19:05:09 19:09:02 39° 58° (ENE) 19:12:52 435.950
GOMX 1 29 Mar 19:17:53 19:19:29 12° 71° (ENE) 19:21:20 467.674
AUBIESAT-1 29 Mar 19:18:39 19:21:11 14° 297° (WNW) 19:23:27 437.475
PRISM 29 Mar 19:23:57 19:28:01 50° 285° (WNW) 19:32:00 437.425
